Regional Weather Roundup
Issued by NWS

Home | Current Version | Previous Version | Text Only | Print | Product List | Glossary On
Versions: 1 2 3 4 5 6 7 8 9 10 11 12 13 14 15 16 17 18 19 20 21 22 23 24 25 26 27 28 29 30 31 32 33 34 35 36 37 38 39 40 41 42 43 44 45 46 47 48 49 50
000
ASUS42 KFFC 291210
RWRGA
WEATHER ROUNDUP FOR GEORGIA
NATIONAL WEATHER SERVICE PEACHTREE CITY GA
800 AM EDT SAT JUL 29 2017

NOTE: "FAIR" INDICATES FEW OR NO CLOUDS BELOW 12,000 FEET WITH NO
SIGNIFICANT WEATHER AND/OR OBSTRUCTIONS TO VISIBILITY.

* = USE WITH CAUTION. THE STATIONS MARKED WITH AN ASTERISK MAY NOT
REPORT WEATHER SUCH AS PRECIPITATION, FOG, OR THUNDER AND ARE NOT
QUALITY CONTROLLED BY NWS.

THE REMARK "TC" DENOTES TEMPERATURE READING IN DEGREES CELSIUS.

GAZ001>058-291300-
NORTH GEORGIA

CITY           SKY/WX    TMP DP  RH WIND       PRES   REMARKS
ATLANTA        PTSUNNY   76  73  91 NW10      29.82R
6HR MIN TEMP:  75; 6HR MAX TEMP:  77;

ATHENS         MOSUNNY   76  74  93 W5        29.79R
6HR MIN TEMP:  74; 6HR MAX TEMP:  76;

CHAMBLEE       MOSUNNY   74  70  87 W6        29.82R
6HR MIN TEMP:  74; 6HR MAX TEMP:  78; 6HR PCP: TRACE;

PEACHTREE CITY CLOUDY    76  75  97 W3        29.83R
6HR MIN TEMP:  76; 6HR MAX TEMP:  77;

ROME           SUNNY     75  71  87 NW6       29.83R
6HR MIN TEMP:  72; 6HR MAX TEMP:  78;

WEST ATLANTA   CLOUDY    75  72  90 N6        29.82R
6HR MIN TEMP:  75; 6HR MAX TEMP:  78; 6HR PCP: TRACE;

GAINESVILLE    SUNNY     75  70  84 NW7       29.83R
6HR MIN TEMP:  73; 6HR MAX TEMP:  76;

CARTERSVILLE   MOSUNNY   72  72 100 CALM      29.84R
6HR MIN TEMP:  72; 6HR MAX TEMP:  76;



CITY           SKY/WX    TMP DP  RH WIND       PRES   REMARKS
LAWRENCEVILLE* MOSUNNY   73  72  94 W8        29.82R
MARIETTA       MOSUNNY   75  70  83 W7        29.83R
KENNESAW*      MOSUNNY   73  70  88 W5        29.84R
CANTON*        SUNNY     73  72  94 CALM      29.84R
$$

GAZ059>098-102>109-291300-
CENTRAL GEORGIA

CITY           SKY/WX    TMP DP  RH WIND       PRES   REMARKS
AUGUSTA-BUSH   CLOUDY    81  75  82 W8        29.75R
6HR MIN TEMP:  80; 6HR MAX TEMP:  83;

AUGUSTA-DANIEL CLOUDY    80  72  76 VRB6      29.77R
6HR MIN TEMP:  80; 6HR MAX TEMP:  83;

COLUMBUS       CLOUDY    77  74  90 W6        29.81R
6HR MIN TEMP:  77; 6HR MAX TEMP:  78; 6HR PCP:  0.59;

MACON          CLOUDY    77  74  90 W8        29.81R
6HR MIN TEMP:  75; 6HR MAX TEMP:  81; 6HR PCP:  0.28;



CITY           SKY/WX    TMP DP  RH WIND       PRES   REMARKS
LAGRANGE*      CLOUDY    79  78  98 W3        29.82R
SYLVANIA*        N/A     76  76 100 W6        29.79S
MILLEDGEVILLE* CLOUDY    79  75  89 CALM      29.80R
$$

GAZ099>101-110>166-291300-
SOUTH GEORGIA

CITY           SKY/WX    TMP DP  RH WIND       PRES   REMARKS
SAVANNAH       CLOUDY    79  73  82 W9        29.80R
6HR MIN TEMP:  77; 6HR MAX TEMP:  81;

VALDOSTA       PTSUNNY   78  76  93 CALM      29.84S
6HR MIN TEMP:  76; 6HR MAX TEMP:  78;

ALMA           CLOUDY    78  74  87 SW5       29.82R
6HR MIN TEMP:  77; 6HR MAX TEMP:  78;

ST SIMONS      SUNNY     81  77  88 SW12      29.83R
6HR MIN TEMP:  80; 6HR MAX TEMP:  81;

FT STEWART     CLOUDY    78  73  84 SW8       29.79R
ALBANY         CLOUDY    80  77  90 SW3       29.85R
HUNTER AFB     CLOUDY    78  74  88 SW10      29.78R
MOODY AFB      PTSUNNY   78  75  89 SW8       29.83R
BRUNSWICK      SUNNY     81  79  94 SW9       29.83R


CITY           SKY/WX    TMP DP  RH WIND       PRES   REMARKS
BAINBRIDGE*    CLOUDY    81  81 100 W7        29.84R HX  91
MOULTRIE*      MOSUNNY   79  75  89 SW3       29.85R
VIDALIA*       CLOUDY    77  75  94 CALM      29.81R
WAYCROSS*      CLOUDY    81  81 100 W6        29.83R HX  91
DOUGLAS*       CLOUDY    77  73  88 SW6       29.84S
$$




USA.gov is the U.S. government's official web portal to all federal, state and local government web resources and services.